Sauk Centre, MN

9:33 AM CDT on September 19, 2019 (GMT -0500)
Sauk Centre

Weather History for KD39 - August, 2019

Change the Weather History Date:

Sunday, August 25, 2019

  Actual Average (KGHW) Record (KGHW)
Temperature  
Mean Temperature 60 °F -  
Max Temperature 64 °F 79 °F 93 °F (2013)
Min Temperature 55 °F 56 °F 33 °F (2008)
Degree Days  
Heating Degree Days 6    
Growing Degree Days 10 (Base 50)    
Moisture  
Dew Point 58 °F    
Average Humidity 89    
Maximum Humidity 97    
Minimum Humidity 76    
Precipitation  
Precipitation 0.08 in - - ()
Sea Level Pressure  
Sea Level Pressure 29.96 in    
Wind  
Wind Speed 9 mph ()    
Max Wind Speed 16 mph    
Max Gust Speed 20 mph    
Visibility 9.3 miles    
Events Rain    
Averages and records for this station are not official NWS values.
T = Trace of Precipitation, MM = Missing Value Source: Averaged Metar Reports

Daily Weather History Graph

Daily Weather History Graph

Search for Another Location

Airport or City:

Astronomy

Aug. 25, 2019 Rise Set
Actual Time 6:31 AM CDT 8:10 PM CDT
Civil Twilight 6:00 AM CDT 8:42 PM CDT
Nautical Twilight 5:22 AM CDT 9:20 PM CDT
Astronomical Twilight 4:40 AM CDT 10:01 PM CDT
Moon 12:58 AM CDT (8/25) 4:43 PM CDT (8/25)
Length of Visible Light 14h 41m
Length of Day
13h 38m
Waning Crescent, 29% of the Moon is Illuminated
Aug 25
Waning Crescent
Aug 30
New
Sep 5
First Quarter
Sep 13
Full
Sep 21
Last Quarter

Hourly Weather History & Observations

Time (CDT) Temp. Dew Point Humidity Pressure Visibility Wind Dir Wind Speed Gust Speed Precip Events Conditions
12:16 AM 61.7 °F 54.5 °F 77% 30.08 in 10.0 mi SE 9.2 mph - N/A   Overcast
12:35 AM 61.9 °F 54.7 °F 77% 30.07 in 10.0 mi SE 9.2 mph - N/A   Overcast
12:36 AM 61.9 °F 54.7 °F 77% 30.07 in 10.0 mi SE 10.4 mph - N/A   Overcast
12:55 AM 61.3 °F 54.7 °F 79% 30.08 in 10.0 mi SE 10.4 mph - N/A   Mostly Cloudy
12:59 AM 61.0 °F 54.7 °F 80% 30.07 in 10.0 mi SE 8.1 mph - N/A   Mostly Cloudy
1:19 AM 59.9 °F 54.7 °F 83% 30.07 in 10.0 mi SE 9.2 mph - N/A   Scattered Clouds
1:36 AM 59.0 °F 54.5 °F 85% 30.06 in 10.0 mi SE 9.2 mph - N/A   Clear
1:58 AM 58.5 °F 54.5 °F 87% 30.05 in 10.0 mi SE 8.1 mph - N/A   Clear
2:16 AM 57.7 °F 54.5 °F 89% 30.05 in 10.0 mi SE 8.1 mph - N/A   Clear
2:36 AM 57.6 °F 54.5 °F 90% 30.04 in 10.0 mi SE 8.1 mph - N/A   Clear
2:55 AM 57.7 °F 54.5 °F 89% 30.03 in 10.0 mi SE 9.2 mph - N/A   Clear
2:56 AM 57.9 °F 54.5 °F 88% 30.03 in 10.0 mi SE 8.1 mph - N/A   Clear
3:15 AM 57.6 °F 54.5 °F 90% 30.03 in 10.0 mi SE 8.1 mph - N/A   Clear
3:16 AM 57.6 °F 54.7 °F 90% 30.03 in 10.0 mi SE 8.1 mph - N/A   Clear
3:38 AM 57.6 °F 54.9 °F 91% 30.02 in 10.0 mi SE 8.1 mph - N/A   Clear
3:56 AM 57.7 °F 55.2 °F 91% 30.02 in 10.0 mi SSE 6.9 mph - N/A   Clear
4:16 AM 57.6 °F 55.2 °F 92% 30.02 in 10.0 mi SE 5.8 mph - N/A   Clear
4:36 AM 57.4 °F 55.0 °F 92% 30.02 in 10.0 mi SE 5.8 mph - N/A   Clear
4:55 AM 56.8 °F 54.7 °F 92% 30.01 in 10.0 mi SE 5.8 mph - N/A   Clear
4:56 AM 56.8 °F 54.7 °F 92% 30.01 in 10.0 mi SE 5.8 mph - N/A   Clear
5:15 AM 56.3 °F 54.5 °F 94% 30.01 in 10.0 mi SE 5.8 mph - N/A   Clear
5:38 AM 55.9 °F 54.5 °F 95% 30.00 in 10.0 mi SE 6.9 mph - N/A   Scattered Clouds
5:58 AM 56.5 °F 54.7 °F 94% 30.00 in 10.0 mi SE 9.2 mph - N/A   Mostly Cloudy
6:15 AM 57.2 °F 54.5 °F 91% 29.99 in 10.0 mi SE 10.4 mph - N/A   Overcast
6:36 AM 56.7 °F 54.5 °F 92% 30.00 in 10.0 mi SE 10.4 mph - N/A   Mostly Cloudy
6:55 AM 57.2 °F 54.5 °F 91% 30.00 in 10.0 mi SE 9.2 mph - N/A   Scattered Clouds
7:15 AM 57.7 °F 54.9 °F 90% 30.00 in 10.0 mi SE 9.2 mph - N/A   Clear
7:19 AM 58.1 °F 54.9 °F 89% 30.00 in 10.0 mi SE 9.2 mph - N/A   Clear
7:38 AM 58.3 °F 55.2 °F 90% 30.00 in 10.0 mi SE 9.2 mph - N/A   Clear
7:55 AM 58.6 °F 55.4 °F 89% 29.99 in 10.0 mi SE 8.1 mph - N/A   Clear
8:15 AM 60.1 °F 55.8 °F 86% 29.99 in 10.0 mi SE 11.5 mph - N/A   Clear
8:16 AM 60.1 °F 55.8 °F 86% 29.99 in 10.0 mi SE 10.4 mph - N/A   Clear
8:35 AM 61.9 °F 56.3 °F 82% 29.99 in 10.0 mi SSE 11.5 mph 17.3 mph N/A   Scattered Clouds
8:36 AM 61.9 °F 56.5 °F 82% 29.99 in 10.0 mi SSE 11.5 mph 17.3 mph N/A   Scattered Clouds
8:59 AM 64.0 °F 56.8 °F 77% 29.99 in 10.0 mi SSE 12.7 mph - N/A   Mostly Cloudy
9:36 AM 62.6 °F 56.1 °F 79% 29.99 in 10.0 mi SE 16.1 mph 19.6 mph N/A   Overcast
9:55 AM 62.6 °F 56.3 °F 80% 29.98 in 10.0 mi SE 12.7 mph 17.3 mph N/A   Overcast
9:56 AM 62.6 °F 56.3 °F 80% 29.98 in 10.0 mi SE 11.5 mph 17.3 mph N/A   Overcast
10:15 AM 62.6 °F 56.5 °F 80% 29.99 in 10.0 mi SE 11.5 mph 16.1 mph N/A   Overcast
10:19 AM 62.8 °F 56.8 °F 81% 29.99 in 10.0 mi SSE 13.8 mph 17.3 mph N/A   Overcast
10:38 AM 63.3 °F 56.7 °F 79% 29.98 in 10.0 mi SE 13.8 mph 19.6 mph N/A   Scattered Clouds
10:55 AM 64.4 °F 56.7 °F 76% 29.99 in 10.0 mi SE 13.8 mph - N/A   Mostly Cloudy
11:15 AM 64.0 °F 57.0 °F 78% 29.98 in 10.0 mi SE 13.8 mph 18.4 mph N/A   Overcast
11:16 AM 64.0 °F 57.0 °F 78% 29.98 in 10.0 mi SE 13.8 mph - N/A   Overcast
11:35 AM 64.6 °F 57.6 °F 78% 29.98 in 10.0 mi SE 12.7 mph - N/A   Overcast
11:58 AM 64.6 °F 57.2 °F 77% 29.98 in 10.0 mi SE 13.8 mph - N/A   Overcast
12:17 PM 64.0 °F 57.2 °F 78% 29.97 in 10.0 mi SE 10.4 mph - N/A   Overcast
12:36 PM 64.0 °F 57.4 °F 79% 29.97 in 10.0 mi SE 9.2 mph - N/A   Overcast
12:55 PM 64.2 °F 57.7 °F 79% 29.97 in 10.0 mi SE 11.5 mph 16.1 mph N/A   Overcast
12:56 PM 64.2 °F 57.9 °F 80% 29.97 in 10.0 mi SE 11.5 mph 16.1 mph N/A   Overcast
1:15 PM 63.7 °F 57.6 °F 80% 29.97 in 10.0 mi SE 11.5 mph - N/A   Overcast
1:19 PM 63.5 °F 57.6 °F 81% 29.97 in 10.0 mi SE 8.1 mph - N/A   Overcast
1:37 PM 62.6 °F 59.2 °F 89% 29.96 in 5.0 mi SE 9.2 mph - N/A Rain Light Rain
1:55 PM 62.6 °F 60.1 °F 91% 29.96 in 5.0 mi SSE 12.7 mph - 0.02 in Rain Light Rain
2:16 PM 61.9 °F 60.1 °F 94% 29.96 in 4.0 mi SE 11.5 mph - N/A   Light Drizzle
2:35 PM 61.7 °F 60.3 °F 95% 29.95 in 4.0 mi SE 6.9 mph - 0.01 in   Overcast
2:55 PM 62.2 °F 60.4 °F 94% 29.95 in 10.0 mi SE 9.2 mph - 0.01 in   Overcast
3:00 PM 62.2 °F 60.4 °F 94% 29.95 in 7.0 mi SE 9.2 mph - N/A Rain Rain
3:19 PM 62.2 °F 60.8 °F 95% 29.94 in 4.0 mi SE 9.2 mph - N/A   Drizzle
3:36 PM 61.9 °F 60.3 °F 94% 29.94 in 5.0 mi SE 8.1 mph - 0.01 in   Light Drizzle
3:56 PM 61.9 °F 60.6 °F 96% 29.94 in 7.0 mi SE 8.1 mph - 0.01 in Rain Light Rain
4:15 PM 61.9 °F 60.4 °F 95% 29.93 in 5.0 mi SE 10.4 mph - 0.01 in   Drizzle
4:16 PM 61.9 °F 60.4 °F 95% 29.93 in 5.0 mi SE 9.2 mph - 0.01 in   Drizzle
4:35 PM 61.7 °F 60.4 °F 96% 29.92 in 4.0 mi SE 9.2 mph - 0.03 in Rain Rain
4:36 PM 61.7 °F 60.4 °F 96% 29.92 in 4.0 mi SE 10.4 mph - 0.03 in Rain Rain
4:59 PM 61.3 °F 60.1 °F 96% 29.91 in 10.0 mi ESE 9.2 mph - 0.03 in   Light Drizzle
5:16 PM 61.7 °F 60.4 °F 96% 29.91 in 5.0 mi ESE 8.1 mph - 0.01 in   Drizzle
5:35 PM 61.7 °F 60.8 °F 97% 29.90 in 7.0 mi ESE 10.4 mph - 0.01 in   Light Drizzle
5:36 PM 61.7 °F 60.8 °F 97% 29.90 in 10.0 mi ESE 9.2 mph - 0.01 in   Light Drizzle
5:55 PM 61.9 °F 61.0 °F 97% 29.90 in 10.0 mi East 10.4 mph - 0.01 in   Overcast
5:56 PM 61.9 °F 61.0 °F 97% 29.90 in 10.0 mi East 9.2 mph - 0.01 in   Overcast
6:15 PM 62.4 °F 61.3 °F 96% 29.89 in 10.0 mi ESE 10.4 mph - N/A   Overcast
6:20 PM 62.6 °F 61.3 °F 96% 29.89 in 10.0 mi ESE 10.4 mph - N/A   Mostly Cloudy
6:37 PM 62.6 °F 61.2 °F 95% 29.89 in 10.0 mi ESE 9.2 mph - N/A   Mostly Cloudy
6:55 PM 62.6 °F 61.2 °F 95% 29.89 in 10.0 mi ESE 9.2 mph - N/A   Overcast
7:15 PM 62.8 °F 61.3 °F 95% 29.89 in 10.0 mi ESE 5.8 mph - N/A   Overcast
7:35 PM 62.6 °F 61.0 °F 94% 29.89 in 10.0 mi ESE 5.8 mph - N/A Rain Light Rain
7:36 PM 62.6 °F 61.0 °F 94% 29.88 in 10.0 mi ESE 6.9 mph - N/A Rain Light Rain
7:55 PM 62.6 °F 60.8 °F 94% 29.88 in 10.0 mi ESE 6.9 mph - N/A   Overcast
8:18 PM 62.2 °F 60.8 °F 95% 29.88 in 10.0 mi ESE 5.8 mph - N/A   Overcast
8:55 PM 62.1 °F 60.3 °F 94% 29.87 in 10.0 mi ESE 8.1 mph - N/A   Overcast
8:56 PM 62.1 °F 60.3 °F 94% 29.87 in 10.0 mi ESE 8.1 mph - N/A   Overcast
9:15 PM 62.1 °F 60.3 °F 94% 29.87 in 10.0 mi ESE 8.1 mph - N/A   Overcast
9:17 PM 62.1 °F 60.3 °F 94% 29.87 in 10.0 mi SE 8.1 mph - N/A   Overcast
9:35 PM 62.1 °F 60.1 °F 93% 29.87 in 10.0 mi SE 9.2 mph - N/A   Overcast
9:56 PM 62.1 °F 60.1 °F 93% 29.87 in 10.0 mi SE 8.1 mph - N/A   Overcast
10:19 PM 62.1 °F 60.1 °F 93% 29.88 in 10.0 mi SE 6.9 mph - N/A   Overcast
10:36 PM 62.2 °F 60.3 °F 93% 29.87 in 10.0 mi SE 9.2 mph - N/A   Overcast
10:55 PM 62.2 °F 60.3 °F 93% 29.86 in 10.0 mi ESE 10.4 mph - N/A   Overcast
10:56 PM 62.2 °F 60.3 °F 93% 29.86 in 10.0 mi ESE 9.2 mph - N/A   Overcast
11:15 PM 62.6 °F 60.1 °F 91% 29.86 in 10.0 mi SE 10.4 mph - N/A   Overcast
11:16 PM 62.6 °F 60.1 °F 91% 29.86 in 10.0 mi SE 10.4 mph - N/A   Overcast
11:35 PM 62.6 °F 60.1 °F 91% 29.86 in 10.0 mi SE 8.1 mph - N/A   Overcast
11:36 PM 62.6 °F 60.1 °F 91% 29.86 in 10.0 mi SE 8.1 mph - N/A   Overcast
11:58 PM 62.6 °F 60.3 °F 92% 29.86 in 10.0 mi SE 8.1 mph - N/A   Overcast